Year,Month,Day,Hour,Minute,Value (Times are PST for temperature in C)
2019,06,23,00,00,14.20
2019,06,23,00,01,14.10
2019,06,23,00,02,14.10
2019,06,23,00,03,14.10
2019,06,23,00,04,14.10
2019,06,23,00,05,14.10
2019,06,23,00,06,14.10
2019,06,23,00,07,14.10
2019,06,23,00,08,14.10
2019,06,23,00,09,14.00
2019,06,23,00,10,14.00
2019,06,23,00,11,14.00
2019,06,23,00,12,13.90
2019,06,23,00,13,13.90
2019,06,23,00,14,13.90
2019,06,23,00,15,13.80
2019,06,23,00,16,13.80
2019,06,23,00,17,13.80
2019,06,23,00,18,13.70
2019,06,23,00,19,13.70
2019,06,23,00,20,13.70
2019,06,23,00,21,13.70
2019,06,23,00,22,13.60
2019,06,23,00,23,13.60
2019,06,23,00,24,13.60
2019,06,23,00,25,13.50
2019,06,23,00,26,13.50
2019,06,23,00,27,13.40
2019,06,23,00,28,13.40
2019,06,23,00,29,13.30
2019,06,23,00,30,13.30
2019,06,23,00,31,13.30
2019,06,23,00,32,13.30
2019,06,23,00,33,13.30
2019,06,23,00,34,13.30
2019,06,23,00,35,13.30
2019,06,23,00,36,13.30
2019,06,23,00,37,13.30
2019,06,23,00,38,13.30
2019,06,23,00,39,13.40
2019,06,23,00,40,13.40
2019,06,23,00,41,13.50
2019,06,23,00,42,13.50
2019,06,23,00,43,13.50
2019,06,23,00,44,13.60
2019,06,23,00,45,13.60
2019,06,23,00,46,13.60
2019,06,23,00,47,13.60
2019,06,23,00,48,13.60
2019,06,23,00,49,13.70
2019,06,23,00,50,13.70
2019,06,23,00,51,13.70
2019,06,23,00,52,13.70
2019,06,23,00,53,13.70
2019,06,23,00,54,13.70
2019,06,23,00,55,13.70
2019,06,23,00,56,13.70
2019,06,23,00,57,13.70
2019,06,23,00,58,13.60
2019,06,23,00,59,13.60
2019,06,23,01,00,13.60
2019,06,23,01,01,13.60
2019,06,23,01,02,13.60
2019,06,23,01,03,13.60
2019,06,23,01,04,13.60
2019,06,23,01,05,13.60
2019,06,23,01,06,13.60
2019,06,23,01,07,13.60
2019,06,23,01,08,13.50
2019,06,23,01,09,13.50
2019,06,23,01,10,13.50
2019,06,23,01,11,13.50
2019,06,23,01,12,13.50
2019,06,23,01,13,13.50
2019,06,23,01,14,13.50
2019,06,23,01,15,13.50
2019,06,23,01,16,13.50
2019,06,23,01,17,13.40
2019,06,23,01,18,13.40
2019,06,23,01,19,13.40
2019,06,23,01,20,13.40
2019,06,23,01,21,13.40
2019,06,23,01,22,13.40
2019,06,23,01,23,13.40
2019,06,23,01,24,13.30
2019,06,23,01,25,13.30
2019,06,23,01,26,13.30
2019,06,23,01,27,13.30
2019,06,23,01,28,13.30
2019,06,23,01,29,13.30
2019,06,23,01,30,13.30
2019,06,23,01,31,13.30
2019,06,23,01,32,13.20
2019,06,23,01,33,13.20
2019,06,23,01,34,13.20
2019,06,23,01,35,13.20
2019,06,23,01,36,13.20
2019,06,23,01,37,13.20
2019,06,23,01,38,13.20
2019,06,23,01,39,13.20
2019,06,23,01,40,13.20
2019,06,23,01,41,13.20
2019,06,23,01,42,13.20
2019,06,23,01,43,13.20
2019,06,23,01,44,13.10
2019,06,23,01,45,13.10
2019,06,23,01,46,13.10
2019,06,23,01,47,13.10
2019,06,23,01,48,13.10
2019,06,23,01,49,13.00
2019,06,23,01,50,13.00
2019,06,23,01,51,13.00
2019,06,23,01,52,12.90
2019,06,23,01,53,12.90
2019,06,23,01,54,12.90
2019,06,23,01,55,12.90
2019,06,23,01,56,12.90
2019,06,23,01,57,12.90
2019,06,23,01,58,12.90
2019,06,23,01,59,12.90
2019,06,23,02,00,12.90
2019,06,23,02,01,12.80
2019,06,23,02,02,12.80
2019,06,23,02,03,12.80
2019,06,23,02,04,12.80
2019,06,23,02,05,12.80
2019,06,23,02,06,12.80
2019,06,23,02,07,12.80
2019,06,23,02,08,12.80
2019,06,23,02,09,12.80
2019,06,23,02,10,12.80
2019,06,23,02,11,12.80
2019,06,23,02,12,12.80
2019,06,23,02,13,12.80
2019,06,23,02,14,12.80
2019,06,23,02,15,12.70
2019,06,23,02,16,12.70
2019,06,23,02,17,12.70
2019,06,23,02,18,12.70
2019,06,23,02,19,12.70
2019,06,23,02,20,12.70
2019,06,23,02,21,12.70
2019,06,23,02,22,12.70
2019,06,23,02,23,12.70
2019,06,23,02,24,12.70
2019,06,23,02,25,12.70
2019,06,23,02,26,12.70
2019,06,23,02,27,12.70
2019,06,23,02,28,12.70
2019,06,23,02,29,12.70
2019,06,23,02,30,12.70
2019,06,23,02,31,12.70
2019,06,23,02,32,12.70
2019,06,23,02,33,12.70
2019,06,23,02,34,12.70
2019,06,23,02,35,12.70
2019,06,23,02,36,12.70
2019,06,23,02,37,12.70
2019,06,23,02,38,12.70
2019,06,23,02,39,12.70
2019,06,23,02,40,12.70
2019,06,23,02,41,12.70
2019,06,23,02,42,12.70
2019,06,23,02,43,12.60
2019,06,23,02,44,12.70
2019,06,23,02,45,12.70
2019,06,23,02,46,12.60
2019,06,23,02,47,12.60
2019,06,23,02,48,12.60
2019,06,23,02,49,12.60
2019,06,23,02,50,12.60
2019,06,23,02,51,12.60
2019,06,23,02,52,12.60
2019,06,23,02,53,12.60
2019,06,23,02,54,12.50
2019,06,23,02,55,12.50
2019,06,23,02,56,12.50
2019,06,23,02,57,12.50
2019,06,23,02,58,12.40
2019,06,23,02,59,12.40
2019,06,23,03,00,12.40
2019,06,23,03,01,12.40
2019,06,23,03,02,12.40
2019,06,23,03,03,12.40
2019,06,23,03,04,12.30
2019,06,23,03,05,12.30
2019,06,23,03,06,12.30
2019,06,23,03,07,12.30
2019,06,23,03,08,12.30
2019,06,23,03,09,12.30
2019,06,23,03,10,12.30
2019,06,23,03,11,12.30
2019,06,23,03,12,12.20
2019,06,23,03,13,12.20
2019,06,23,03,14,12.20
2019,06,23,03,15,12.20
2019,06,23,03,16,12.20
2019,06,23,03,17,12.20
2019,06,23,03,18,12.20
2019,06,23,03,19,12.20
2019,06,23,03,20,12.10
2019,06,23,03,21,12.10
2019,06,23,03,22,12.10
2019,06,23,03,23,12.10
2019,06,23,03,24,12.10
2019,06,23,03,25,12.10
2019,06,23,03,26,12.10
2019,06,23,03,27,12.10
2019,06,23,03,28,12.10
2019,06,23,03,29,12.10
2019,06,23,03,30,12.10
2019,06,23,03,31,12.10
2019,06,23,03,32,12.10
2019,06,23,03,33,12.10
2019,06,23,03,34,12.00
2019,06,23,03,35,12.00
2019,06,23,03,36,11.90
2019,06,23,03,37,11.90
2019,06,23,03,38,11.80
2019,06,23,03,39,11.80
2019,06,23,03,40,11.70
2019,06,23,03,41,11.70
2019,06,23,03,42,11.60
2019,06,23,03,43,11.60
2019,06,23,03,44,11.60
2019,06,23,03,45,11.50
2019,06,23,03,46,11.50
2019,06,23,03,47,11.40
2019,06,23,03,48,11.40
2019,06,23,03,49,11.40
2019,06,23,03,50,11.40
2019,06,23,03,51,11.40
2019,06,23,03,52,11.40
2019,06,23,03,53,11.40
2019,06,23,03,54,11.40
2019,06,23,03,55,11.40
2019,06,23,03,56,11.40
2019,06,23,03,57,11.50
2019,06,23,03,58,11.50
2019,06,23,03,59,11.50
2019,06,23,04,00,11.50
2019,06,23,04,01,11.60
2019,06,23,04,02,11.60
2019,06,23,04,03,11.60
2019,06,23,04,04,11.60
2019,06,23,04,05,11.60
2019,06,23,04,06,11.50
2019,06,23,04,07,11.50
2019,06,23,04,08,11.50
2019,06,23,04,09,11.50
2019,06,23,04,10,11.40
2019,06,23,04,11,11.40
2019,06,23,04,12,11.40
2019,06,23,04,13,11.40
2019,06,23,04,14,11.40
2019,06,23,04,15,11.30
2019,06,23,04,16,11.30
2019,06,23,04,17,11.30
2019,06,23,04,18,11.30
2019,06,23,04,19,11.20
2019,06,23,04,20,11.20
2019,06,23,04,21,11.20
2019,06,23,04,22,11.20
2019,06,23,04,23,11.20
2019,06,23,04,24,11.20
2019,06,23,04,25,11.20
2019,06,23,04,26,11.20
2019,06,23,04,27,11.20
2019,06,23,04,28,11.30
2019,06,23,04,29,11.30
2019,06,23,04,30,11.30
2019,06,23,04,31,11.30
2019,06,23,04,32,11.30
2019,06,23,04,33,11.30
2019,06,23,04,34,11.30
2019,06,23,04,35,11.30
2019,06,23,04,36,11.20
2019,06,23,04,37,11.20
2019,06,23,04,38,11.10
2019,06,23,04,39,11.10
2019,06,23,04,40,11.10
2019,06,23,04,41,11.00
2019,06,23,04,42,11.00
2019,06,23,04,43,10.90
2019,06,23,04,44,10.90
2019,06,23,04,45,10.90
2019,06,23,04,46,10.80
2019,06,23,04,47,10.80
2019,06,23,04,48,10.80
2019,06,23,04,49,10.80
2019,06,23,04,50,10.80
2019,06,23,04,51,10.70
2019,06,23,04,52,10.70
2019,06,23,04,53,10.70
2019,06,23,04,54,10.70
2019,06,23,04,55,10.60
2019,06,23,04,56,10.60
2019,06,23,04,57,10.60
2019,06,23,04,58,10.50
2019,06,23,04,59,10.50
2019,06,23,05,00,10.50
2019,06,23,05,01,10.40
2019,06,23,05,02,10.40
2019,06,23,05,03,10.40
2019,06,23,05,04,10.40
2019,06,23,05,05,10.40
2019,06,23,05,06,10.40
2019,06,23,05,07,10.40
2019,06,23,05,08,10.30
2019,06,23,05,09,10.30
2019,06,23,05,10,10.30
2019,06,23,05,11,10.30
2019,06,23,05,12,10.40
2019,06,23,05,13,10.40
2019,06,23,05,14,10.40
2019,06,23,05,15,10.40
2019,06,23,05,16,10.40
2019,06,23,05,17,10.30
2019,06,23,05,18,10.30
2019,06,23,05,19,10.30
2019,06,23,05,20,10.30
2019,06,23,05,21,10.30
2019,06,23,05,22,10.30
2019,06,23,05,23,10.30
2019,06,23,05,24,10.30
2019,06,23,05,25,10.30
2019,06,23,05,26,10.30
2019,06,23,05,27,10.30
2019,06,23,05,28,10.30
2019,06,23,05,29,10.30
2019,06,23,05,30,10.30
2019,06,23,05,31,10.30
2019,06,23,05,32,10.30
2019,06,23,05,33,10.20
2019,06,23,05,34,10.20
2019,06,23,05,35,10.20
2019,06,23,05,36,10.20
2019,06,23,05,37,10.20
2019,06,23,05,38,10.20
2019,06,23,05,39,10.10
2019,06,23,05,40,10.10
2019,06,23,05,41,10.10
2019,06,23,05,42,10.10
2019,06,23,05,43,10.10
2019,06,23,05,44,10.00
2019,06,23,05,45,10.00
2019,06,23,05,46,10.00
2019,06,23,05,47,10.00
2019,06,23,05,48,9.90
2019,06,23,05,49,9.90
2019,06,23,05,50,9.90
2019,06,23,05,51,9.90
2019,06,23,05,52,9.90
2019,06,23,05,53,9.90
2019,06,23,05,54,9.90
2019,06,23,05,55,9.80
2019,06,23,05,56,9.80
2019,06,23,05,57,9.80
2019,06,23,05,58,9.80
2019,06,23,05,59,9.80
2019,06,23,06,00,9.80
2019,06,23,06,01,9.80
2019,06,23,06,02,9.80
2019,06,23,06,03,9.80
2019,06,23,06,04,9.80
2019,06,23,06,05,9.80
2019,06,23,06,06,9.80
2019,06,23,06,07,9.80
2019,06,23,06,08,9.80
2019,06,23,06,09,9.80
2019,06,23,06,10,9.80
2019,06,23,06,11,9.80
2019,06,23,06,12,9.80
2019,06,23,06,13,9.80
2019,06,23,06,14,9.90
2019,06,23,06,15,9.90
2019,06,23,06,16,9.90
2019,06,23,06,17,9.90
2019,06,23,06,18,9.90
2019,06,23,06,19,9.90
2019,06,23,06,20,10.00
2019,06,23,06,21,10.00
2019,06,23,06,22,10.00
2019,06,23,06,23,10.10
2019,06,23,06,24,10.10
2019,06,23,06,25,10.10
2019,06,23,06,26,10.10
2019,06,23,06,27,10.20
2019,06,23,06,28,10.20
2019,06,23,06,29,10.20
2019,06,23,06,30,10.20
2019,06,23,06,31,10.20
2019,06,23,06,32,10.30
2019,06,23,06,33,10.30
2019,06,23,06,34,10.30
2019,06,23,06,35,10.40
2019,06,23,06,36,10.40
2019,06,23,06,37,10.40
2019,06,23,06,38,10.40
2019,06,23,06,39,10.40
2019,06,23,06,40,10.50
2019,06,23,06,41,10.50
2019,06,23,06,42,10.50
2019,06,23,06,43,10.50
2019,06,23,06,44,10.50
2019,06,23,06,45,10.50
2019,06,23,06,46,10.60
2019,06,23,06,47,10.60
2019,06,23,06,48,10.60
2019,06,23,06,49,10.60
2019,06,23,06,50,10.70
2019,06,23,06,51,10.70
2019,06,23,06,52,10.80
2019,06,23,06,53,10.80
2019,06,23,06,54,10.80
2019,06,23,06,55,10.90
2019,06,23,06,56,10.90
2019,06,23,06,57,10.90
2019,06,23,06,58,11.00
2019,06,23,06,59,11.00
2019,06,23,07,00,11.00
2019,06,23,07,01,11.10
2019,06,23,07,02,11.10
2019,06,23,07,03,11.20
2019,06,23,07,04,11.20
2019,06,23,07,05,11.30
2019,06,23,07,06,11.40
2019,06,23,07,07,11.50
2019,06,23,07,08,11.60
2019,06,23,07,09,11.60
2019,06,23,07,10,11.80
2019,06,23,07,11,11.80
2019,06,23,07,12,11.90
2019,06,23,07,13,12.00
2019,06,23,07,14,12.10
2019,06,23,07,15,12.20
2019,06,23,07,16,12.20
2019,06,23,07,17,12.30
2019,06,23,07,18,12.30
2019,06,23,07,19,12.30
2019,06,23,07,20,12.30
2019,06,23,07,21,12.30
2019,06,23,07,22,12.40
2019,06,23,07,23,12.40
2019,06,23,07,24,12.40
2019,06,23,07,25,12.50
2019,06,23,07,26,12.50
2019,06,23,07,27,12.60
2019,06,23,07,28,12.70
2019,06,23,07,29,12.80
2019,06,23,07,30,12.90
2019,06,23,07,31,12.90
2019,06,23,07,32,13.00
2019,06,23,07,33,13.10
2019,06,23,07,34,13.10
2019,06,23,07,35,13.20
2019,06,23,07,36,13.20
2019,06,23,07,37,13.30
2019,06,23,07,38,13.30
2019,06,23,07,39,13.30
2019,06,23,07,40,13.30
2019,06,23,07,41,13.40
2019,06,23,07,42,13.50
2019,06,23,07,43,13.50
2019,06,23,07,44,13.60
2019,06,23,07,45,13.60
2019,06,23,07,46,13.70
2019,06,23,07,47,13.70
2019,06,23,07,48,13.80
2019,06,23,07,49,13.80
2019,06,23,07,50,13.80
2019,06,23,07,51,13.90
2019,06,23,07,52,13.90
2019,06,23,07,53,13.90
2019,06,23,07,54,13.90
2019,06,23,07,55,13.90
2019,06,23,07,56,13.90
2019,06,23,07,57,13.90
2019,06,23,07,58,14.00
2019,06,23,07,59,14.00
2019,06,23,08,00,14.10
2019,06,23,08,01,14.10
2019,06,23,08,02,14.10
2019,06,23,08,03,14.20
2019,06,23,08,04,14.20
2019,06,23,08,05,14.20
2019,06,23,08,06,14.20
2019,06,23,08,07,14.20
2019,06,23,08,08,14.10
2019,06,23,08,09,14.10
2019,06,23,08,10,14.00
2019,06,23,08,11,14.00
2019,06,23,08,12,13.90
2019,06,23,08,13,13.90
2019,06,23,08,14,13.90
2019,06,23,08,15,13.80
2019,06,23,08,16,13.80
2019,06,23,08,17,13.80
2019,06,23,08,18,13.80
2019,06,23,08,19,13.80
2019,06,23,08,20,13.70
2019,06,23,08,21,13.70
2019,06,23,08,22,13.70
2019,06,23,08,23,13.70
2019,06,23,08,24,13.80
2019,06,23,08,25,13.80
2019,06,23,08,26,13.80
2019,06,23,08,27,13.80
2019,06,23,08,28,13.90
2019,06,23,08,29,13.90
2019,06,23,08,30,13.90
2019,06,23,08,31,13.90
2019,06,23,08,32,13.90
2019,06,23,08,33,13.90
2019,06,23,08,34,13.90
2019,06,23,08,35,13.90
2019,06,23,08,36,13.90
2019,06,23,08,37,13.90
2019,06,23,08,38,13.90
2019,06,23,08,39,13.90
2019,06,23,08,40,13.90
2019,06,23,08,41,14.00
2019,06,23,08,42,14.00
2019,06,23,08,43,14.00
2019,06,23,08,44,14.00
2019,06,23,08,45,14.00
2019,06,23,08,46,14.10
2019,06,23,08,47,14.10
2019,06,23,08,48,14.10
2019,06,23,08,49,14.20
2019,06,23,08,50,14.20
2019,06,23,08,51,14.20
2019,06,23,08,52,14.20
2019,06,23,08,53,14.20
2019,06,23,08,54,14.30
2019,06,23,08,55,14.30
2019,06,23,08,56,14.30
2019,06,23,08,57,14.30
2019,06,23,08,58,14.30
2019,06,23,08,59,14.30
2019,06,23,09,00,14.30
2019,06,23,09,01,14.30
2019,06,23,09,02,14.30
2019,06,23,09,03,14.40
2019,06,23,09,04,14.40
2019,06,23,09,05,14.40
2019,06,23,09,06,14.50
2019,06,23,09,07,14.50
2019,06,23,09,08,14.60
2019,06,23,09,09,14.60
2019,06,23,09,10,14.70
2019,06,23,09,11,14.70
2019,06,23,09,12,14.70
2019,06,23,09,13,14.70
2019,06,23,09,14,14.80
2019,06,23,09,15,14.80
2019,06,23,09,16,14.80
2019,06,23,09,17,14.80
2019,06,23,09,18,14.80
2019,06,23,09,19,14.80
2019,06,23,09,20,14.80
2019,06,23,09,21,14.90
2019,06,23,09,22,14.90
2019,06,23,09,23,15.00
2019,06,23,09,24,15.00
2019,06,23,09,25,15.10
2019,06,23,09,26,15.20
2019,06,23,09,27,15.30
2019,06,23,09,28,15.40
2019,06,23,09,29,15.50
2019,06,23,09,30,15.60
2019,06,23,09,31,15.70
2019,06,23,09,32,15.80
2019,06,23,09,33,15.80
2019,06,23,09,34,15.90
2019,06,23,09,35,15.90
2019,06,23,09,36,15.90
2019,06,23,09,37,16.00
2019,06,23,09,38,16.00
2019,06,23,09,39,16.00
2019,06,23,09,40,16.10
2019,06,23,09,41,16.10
2019,06,23,09,42,16.20
2019,06,23,09,43,16.30
2019,06,23,09,44,16.30
2019,06,23,09,45,16.30
2019,06,23,09,46,16.30
2019,06,23,09,47,16.30
2019,06,23,09,48,16.30
2019,06,23,09,49,16.40
2019,06,23,09,50,16.50
2019,06,23,09,51,16.50
2019,06,23,09,52,16.60
2019,06,23,09,53,16.60
2019,06,23,09,54,16.70
2019,06,23,09,55,16.70
2019,06,23,09,56,16.70
2019,06,23,09,57,16.70
2019,06,23,09,58,16.60
2019,06,23,09,59,16.60
2019,06,23,10,00,16.60
2019,06,23,10,01,16.60
2019,06,23,10,02,16.60
2019,06,23,10,03,16.60
2019,06,23,10,04,16.60
2019,06,23,10,05,16.60
2019,06,23,10,06,16.60
2019,06,23,10,07,16.60
2019,06,23,10,08,16.60
2019,06,23,10,09,16.60
2019,06,23,10,10,16.50
2019,06,23,10,11,16.40
2019,06,23,10,12,16.30
2019,06,23,10,13,16.30
2019,06,23,10,14,16.20
2019,06,23,10,15,16.10
2019,06,23,10,16,16.10
2019,06,23,10,17,16.10
2019,06,23,10,18,16.10
2019,06,23,10,19,16.20
2019,06,23,10,20,16.30
2019,06,23,10,21,16.40
2019,06,23,10,22,16.50
2019,06,23,10,23,16.60
2019,06,23,10,24,16.60
2019,06,23,10,25,16.70
2019,06,23,10,26,16.80
2019,06,23,10,27,16.80
2019,06,23,10,28,16.90
2019,06,23,10,29,16.90
2019,06,23,10,30,16.90
2019,06,23,10,31,17.00
2019,06,23,10,32,17.00
2019,06,23,10,33,16.90
2019,06,23,10,34,16.90
2019,06,23,10,35,16.80
2019,06,23,10,36,16.80
2019,06,23,10,37,16.90
2019,06,23,10,38,16.90
2019,06,23,10,39,17.00
2019,06,23,10,40,17.00
2019,06,23,10,41,17.10
2019,06,23,10,42,17.20
2019,06,23,10,43,17.30
2019,06,23,10,44,17.30
2019,06,23,10,45,17.40
2019,06,23,10,46,17.50
2019,06,23,10,47,17.50
2019,06,23,10,48,17.50
2019,06,23,10,49,17.40
2019,06,23,10,50,17.40
2019,06,23,10,51,17.40
2019,06,23,10,52,17.50
2019,06,23,10,53,17.50
2019,06,23,10,54,17.60
2019,06,23,10,55,17.60
2019,06,23,10,56,17.60
2019,06,23,10,57,17.60
2019,06,23,10,58,17.70
2019,06,23,10,59,17.70
2019,06,23,11,00,17.80
2019,06,23,11,01,17.80
2019,06,23,11,02,17.70
2019,06,23,11,03,17.70
2019,06,23,11,04,17.80
2019,06,23,11,05,17.80
2019,06,23,11,06,17.80
2019,06,23,11,07,17.70
2019,06,23,11,08,17.70
2019,06,23,11,09,17.70
2019,06,23,11,10,17.70
2019,06,23,11,11,17.80
2019,06,23,11,12,17.80
2019,06,23,11,13,17.90
2019,06,23,11,14,18.00
2019,06,23,11,15,18.00
2019,06,23,11,16,18.10
2019,06,23,11,17,18.10
2019,06,23,11,18,18.10
2019,06,23,11,19,18.20
2019,06,23,11,20,18.20
2019,06,23,11,21,18.20
2019,06,23,11,22,18.20
2019,06,23,11,23,18.30
2019,06,23,11,24,18.40
2019,06,23,11,25,18.40
2019,06,23,11,26,18.40
2019,06,23,11,27,18.40
2019,06,23,11,28,18.40
2019,06,23,11,29,18.40
2019,06,23,11,30,18.30
2019,06,23,11,31,18.20
2019,06,23,11,32,18.10
2019,06,23,11,33,18.00
2019,06,23,11,34,18.00
2019,06,23,11,35,17.90
2019,06,23,11,36,17.90
2019,06,23,11,37,17.80
2019,06,23,11,38,17.90
2019,06,23,11,39,17.90
2019,06,23,11,40,18.00
2019,06,23,11,41,18.00
2019,06,23,11,42,18.00
2019,06,23,11,43,18.00
2019,06,23,11,44,17.90
2019,06,23,11,45,17.80
2019,06,23,11,46,17.70
2019,06,23,11,47,17.70
2019,06,23,11,48,17.70
2019,06,23,11,49,17.80
2019,06,23,11,50,17.80
2019,06,23,11,51,17.80
2019,06,23,11,52,17.80
2019,06,23,11,53,17.80
2019,06,23,11,54,17.80
2019,06,23,11,55,17.80
2019,06,23,11,56,17.80
2019,06,23,11,57,17.80
2019,06,23,11,58,17.80
2019,06,23,11,59,17.90
2019,06,23,12,00,17.90
2019,06,23,12,01,17.80
2019,06,23,12,02,17.80
2019,06,23,12,03,17.80
2019,06,23,12,04,17.80
2019,06,23,12,05,17.80
2019,06,23,12,06,17.70
2019,06,23,12,07,17.80
2019,06,23,12,08,17.80
2019,06,23,12,09,17.80
2019,06,23,12,10,17.80
2019,06,23,12,11,17.90
2019,06,23,12,12,17.90
2019,06,23,12,13,18.00
2019,06,23,12,14,18.00
2019,06,23,12,15,18.00
2019,06,23,12,16,18.10
2019,06,23,12,17,18.00
2019,06,23,12,18,17.90
2019,06,23,12,19,17.90
2019,06,23,12,20,17.90
2019,06,23,12,21,18.00
2019,06,23,12,22,18.00
2019,06,23,12,23,18.00
2019,06,23,12,24,18.00
2019,06,23,12,25,17.90
2019,06,23,12,26,17.90
2019,06,23,12,27,17.90
2019,06,23,12,28,17.90
2019,06,23,12,29,17.80
2019,06,23,12,30,17.80
2019,06,23,12,31,17.80
2019,06,23,12,32,17.80
2019,06,23,12,33,17.80
2019,06,23,12,34,17.80
2019,06,23,12,35,17.80
2019,06,23,12,36,17.80
2019,06,23,12,37,17.90
2019,06,23,12,38,17.90
2019,06,23,12,39,18.00
2019,06,23,12,40,18.00
2019,06,23,12,41,18.00
2019,06,23,12,42,18.00
2019,06,23,12,43,17.90
2019,06,23,12,44,17.90
2019,06,23,12,45,17.80
2019,06,23,12,46,17.70
2019,06,23,12,47,17.60
2019,06,23,12,48,17.60
2019,06,23,12,49,17.50
2019,06,23,12,50,17.40
2019,06,23,12,51,17.30
2019,06,23,12,52,17.20
2019,06,23,12,53,17.20
2019,06,23,12,54,17.20
2019,06,23,12,55,17.10
2019,06,23,12,56,17.10
2019,06,23,12,57,17.10
2019,06,23,12,58,17.00
2019,06,23,12,59,17.00
2019,06,23,13,00,17.00
2019,06,23,13,01,17.00
2019,06,23,13,02,17.00
2019,06,23,13,03,17.00
2019,06,23,13,04,17.00
2019,06,23,13,05,16.90
2019,06,23,13,06,16.90
2019,06,23,13,07,16.90
2019,06,23,13,08,16.90
2019,06,23,13,09,16.80
2019,06,23,13,10,16.80
2019,06,23,13,11,16.80
2019,06,23,13,12,16.80
2019,06,23,13,13,16.80
2019,06,23,13,14,16.70
2019,06,23,13,15,16.70
2019,06,23,13,16,16.60
2019,06,23,13,17,16.60
2019,06,23,13,18,16.60
2019,06,23,13,19,16.60
2019,06,23,13,20,16.60
2019,06,23,13,21,16.50
2019,06,23,13,22,16.50
2019,06,23,13,23,16.50
2019,06,23,13,24,16.40
2019,06,23,13,25,16.50
2019,06,23,13,26,16.40
2019,06,23,13,27,16.40
2019,06,23,13,28,16.50
2019,06,23,13,29,16.50
2019,06,23,13,30,16.50
2019,06,23,13,31,16.60
2019,06,23,13,32,16.60
2019,06,23,13,33,16.60
2019,06,23,13,34,16.60
2019,06,23,13,35,16.70
2019,06,23,13,36,16.70
2019,06,23,13,37,16.80
2019,06,23,13,38,16.80
2019,06,23,13,39,16.80
2019,06,23,13,40,16.80
2019,06,23,13,41,16.90
2019,06,23,13,42,16.90
2019,06,23,13,43,16.90
2019,06,23,13,44,16.90
2019,06,23,13,45,17.00
2019,06,23,13,46,17.00
2019,06,23,13,47,17.10
2019,06,23,13,48,17.10
2019,06,23,13,49,17.20
2019,06,23,13,50,17.30
2019,06,23,13,51,17.30
2019,06,23,13,52,17.40
2019,06,23,13,53,17.50
2019,06,23,13,54,17.50
2019,06,23,13,55,17.60
2019,06,23,13,56,17.60
2019,06,23,13,57,17.70
2019,06,23,13,58,17.70
2019,06,23,13,59,17.70
2019,06,23,14,00,17.70
2019,06,23,14,01,17.70
2019,06,23,14,02,17.60
2019,06,23,14,03,17.60
2019,06,23,14,04,17.50
2019,06,23,14,05,17.50
2019,06,23,14,06,17.40
2019,06,23,14,07,17.30
2019,06,23,14,08,17.20
2019,06,23,14,09,17.10
2019,06,23,14,10,17.10
2019,06,23,14,11,17.00
2019,06,23,14,12,17.00
2019,06,23,14,13,17.00
2019,06,23,14,14,17.00
2019,06,23,14,15,16.90
2019,06,23,14,16,16.90
2019,06,23,14,17,16.90
2019,06,23,14,18,16.80
2019,06,23,14,19,16.80
2019,06,23,14,20,16.80
2019,06,23,14,21,16.80
2019,06,23,14,22,16.70
2019,06,23,14,23,16.80
2019,06,23,14,24,16.80
2019,06,23,14,25,16.90
2019,06,23,14,26,17.00
2019,06,23,14,27,17.10
2019,06,23,14,28,17.10
2019,06,23,14,29,17.20
2019,06,23,14,30,17.20
2019,06,23,14,31,17.30
2019,06,23,14,32,17.30
2019,06,23,14,33,17.20
2019,06,23,14,34,17.30
2019,06,23,14,35,17.30
2019,06,23,14,36,17.30
2019,06,23,14,37,17.40
2019,06,23,14,38,17.50
2019,06,23,14,39,17.60
2019,06,23,14,40,17.70
2019,06,23,14,41,17.80
2019,06,23,14,42,17.90
2019,06,23,14,43,18.00
2019,06,23,14,44,18.10
2019,06,23,14,45,18.20
2019,06,23,14,46,18.30
2019,06,23,14,47,18.40
2019,06,23,14,48,18.40
2019,06,23,14,49,18.50
2019,06,23,14,50,18.50
2019,06,23,14,51,18.60
2019,06,23,14,52,18.60
2019,06,23,14,53,18.60
2019,06,23,14,54,18.70
2019,06,23,14,55,18.80
2019,06,23,14,56,18.90
2019,06,23,14,57,19.00
2019,06,23,14,58,19.10
2019,06,23,14,59,19.10
2019,06,23,15,00,19.20
2019,06,23,15,01,19.30
2019,06,23,15,02,19.40
2019,06,23,15,03,19.40
2019,06,23,15,04,19.50
2019,06,23,15,05,19.60
2019,06,23,15,06,19.60
2019,06,23,15,07,19.60
2019,06,23,15,08,19.60
2019,06,23,15,09,19.60
2019,06,23,15,10,19.50
2019,06,23,15,11,19.40
2019,06,23,15,12,19.30
2019,06,23,15,13,19.30
2019,06,23,15,14,19.20
2019,06,23,15,15,19.10
2019,06,23,15,16,19.10
2019,06,23,15,17,19.00
2019,06,23,15,18,19.00
2019,06,23,15,19,18.90
2019,06,23,15,20,18.90
2019,06,23,15,21,18.80
2019,06,23,15,22,18.80
2019,06,23,15,23,18.80
2019,06,23,15,24,18.80
2019,06,23,15,25,18.80
2019,06,23,15,26,18.80
2019,06,23,15,27,18.80
2019,06,23,15,28,18.70
2019,06,23,15,29,18.70
2019,06,23,15,30,18.70
2019,06,23,15,31,18.70
2019,06,23,15,32,18.70
2019,06,23,15,33,18.70
2019,06,23,15,34,18.70
2019,06,23,15,35,18.70
2019,06,23,15,36,18.70
2019,06,23,15,37,18.70
2019,06,23,15,38,18.70
2019,06,23,15,39,18.70
2019,06,23,15,40,18.70
2019,06,23,15,41,18.70
2019,06,23,15,42,18.70
2019,06,23,15,43,18.80
2019,06,23,15,44,18.80
2019,06,23,15,45,18.90
2019,06,23,15,46,18.90
2019,06,23,15,47,19.00
2019,06,23,15,48,19.00
2019,06,23,15,49,19.10
2019,06,23,15,50,19.10
2019,06,23,15,51,19.10
2019,06,23,15,52,19.10
2019,06,23,15,53,19.10
2019,06,23,15,54,19.10
2019,06,23,15,55,19.10
2019,06,23,15,56,19.10
2019,06,23,15,57,19.10
2019,06,23,15,58,19.10
2019,06,23,15,59,19.10
2019,06,23,16,00,19.10
2019,06,23,16,01,19.10
2019,06,23,16,02,19.10
2019,06,23,16,03,19.10
2019,06,23,16,04,19.00
2019,06,23,16,05,19.00
2019,06,23,16,06,18.90
2019,06,23,16,07,18.90
2019,06,23,16,08,18.90
2019,06,23,16,09,18.90
2019,06,23,16,10,19.00
2019,06,23,16,11,19.00
2019,06,23,16,12,19.00
2019,06,23,16,13,19.10
2019,06,23,16,14,19.10
2019,06,23,16,15,19.10
2019,06,23,16,16,19.10
2019,06,23,16,17,19.10
2019,06,23,16,18,19.10
2019,06,23,16,19,19.10
2019,06,23,16,20,19.10
2019,06,23,16,21,19.10
2019,06,23,16,22,19.10
2019,06,23,16,23,19.20
2019,06,23,16,24,19.20
2019,06,23,16,25,19.20
2019,06,23,16,26,19.10
2019,06,23,16,27,19.10
2019,06,23,16,28,19.10
2019,06,23,16,29,19.10
2019,06,23,16,30,19.00
2019,06,23,16,31,19.00
2019,06,23,16,32,19.00
2019,06,23,16,33,19.10
2019,06,23,16,34,19.10
2019,06,23,16,35,19.10
2019,06,23,16,36,19.20
2019,06,23,16,37,19.20
2019,06,23,16,38,19.20
2019,06,23,16,39,19.30
2019,06,23,16,40,19.30
2019,06,23,16,41,19.40
2019,06,23,16,42,19.40
2019,06,23,16,43,19.40
2019,06,23,16,44,19.40
2019,06,23,16,45,19.40
2019,06,23,16,46,19.30
2019,06,23,16,47,19.40
2019,06,23,16,48,19.40
2019,06,23,16,49,19.40
2019,06,23,16,50,19.50
2019,06,23,16,51,19.50
2019,06,23,16,52,19.60
2019,06,23,16,53,19.60
2019,06,23,16,54,19.70
2019,06,23,16,55,19.70
2019,06,23,16,56,19.80
2019,06,23,16,57,19.80
2019,06,23,16,58,19.80
2019,06,23,16,59,19.80
2019,06,23,17,00,19.70
2019,06,23,17,01,19.50
2019,06,23,17,02,19.30
2019,06,23,17,03,19.10
2019,06,23,17,04,18.90
2019,06,23,17,05,18.70
2019,06,23,17,06,18.60
2019,06,23,17,07,18.50
2019,06,23,17,08,18.40
2019,06,23,17,09,18.40
2019,06,23,17,10,18.30
2019,06,23,17,11,18.20
2019,06,23,17,12,18.20
2019,06,23,17,13,18.10
2019,06,23,17,14,18.10
2019,06,23,17,15,18.10
2019,06,23,17,16,18.00
2019,06,23,17,17,18.00
2019,06,23,17,18,18.00
2019,06,23,17,19,18.00
2019,06,23,17,20,18.00